• MPC Preparation (Info)

  • MPEC 2013-J48 : 2013 JV17

    The following Minor Planet Electronic Circular may be linked-to from your own Web pages, but must not otherwise be redistributed electronically.

    A form allowing access to any MPEC is at the bottom of this page.


    Read MPEC 2013-J47 Read MPEC 2013-J49


    M.P.E.C. 2013-J48                                Issued 2013 May 12, 12:57 UT
    
         The Minor Planet Electronic Circulars contain information on unusual
             minor planets and routine data on comets.  They are published
       on behalf of Commission 20 of the International Astronomical Union by the
              Minor Planet Center, Smithsonian Astrophysical Observatory,
                              Cambridge, MA 02138, U.S.A.
    
                 Prepared using the Tamkin Foundation Computer Network
    
                                  MPC@CFA.HARVARD.EDU
                URL https://www.minorplanetcenter.net/    ISSN 1523-6714
    
                                       2013 JV17
    
    Observations:
         K13J17V* C2013 05 10.39036 14 56 04.473-03 09 18.20         20.2 wLEJ048F51
         K13J17V  C2013 05 10.42009 14 56 24.066-03 00 20.34         20.3 wLEJ048F51
         K13J17V  C2013 05 10.43495 14 56 33.766-02 55 53.78         20.1 wLEJ048F51
         K13J17V 2C2013 05 11.51200615 08 13.931+01 27 32.56         20.8 RtEJ048568
         K13J17V 2C2013 05 11.51326215 08 14.476+01 27 47.59         20.9 RtEJ048568
         K13J17V 2C2013 05 11.51451315 08 15.016+01 28 02.52         20.8 RtEJ048568
         K13J17V KC2013 05 11.95026 15 12 08.33 +02 46 41.3                qEJ048J95
         K13J17V KC2013 05 11.95815 15 12 11.42 +02 48 02.3                qEJ048J95
         K13J17V KC2013 05 11.97078 15 12 16.26 +02 50 13.2          20.8 RqEJ048J95
    
    Observer details:
    568 Mauna Kea.  Observer D. Woodworth.  Measurers D. J. Tholen,
        R. J. Wainscoat, M. Micheli.  3.6-m Canada-France-Hawaii Telescope.
    F51 Pan-STARRS 1, Haleakala.  Observers N. Primak, A. Schultz, S. Watters,
        T. Goggia.  Measurer PS1 Science Consortium.  1.8-m Ritchey-Chretien
        + CCD.
    J95 Great Shefford.  Observer P. Birtwhistle.  0.40-m f/6.0 Schmidt-Cassegrain
        + CCD.
    
    Orbital elements:
    2013 JV17                                                Earth MOID = 0.0102 AU
    Epoch 2013 Apr. 18.0 TT = JDT 2456400.5                 MPC
    M  30.05483              (2000.0)            P               Q
    n   0.76405144     Peri.  287.49531     -0.89868759     -0.41750077
    a   1.1850072      Node   228.05952     +0.43858292     -0.85380532
    e   0.2595572      Incl.   10.40680     +0.00237419     -0.31098165
    P   1.29           H   27.7           G   0.15           U   6
    Residuals in seconds of arc
    130510 F51  0.2-  0.3-    130511 568  0.0   0.0     130511 J95  0.5+  0.4+
    130510 F51  0.0   0.1+    130511 568  0.0   0.0     130511 J95  0.4+  0.4-
    130510 F51  0.3+  0.2+    130511 568  0.0   0.0     130511 J95  0.8-  0.0
    
    Ephemeris:
    2013 JV17                a,e,i = 1.19, 0.26, 10                  q = 0.8774
    Date    TT    R. A. (2000) Decl.     Delta      r     Elong.  Phase     V
    2013 04 12    04 06 05.7 -22 02 31   0.1231  0.9292    50.6   123.5    28.1
    ...
    2013 04 27    04 34 10.1 -29 35 31   0.04841 0.9791    54.4   123.2    26.2
    ...
    2013 05 05    07 50 21.7 -54 45 39   0.01285 1.0098    95.1    84.1    21.2
    ...
    2013 05 11    15 03 21.6 -00 22 48   0.02508 1.0339   162.5    17.1    20.7
    2013 05 12    15 12 27.3 +02 58 46   0.02974 1.0380   158.9    20.5    21.2
    2013 05 13    15 19 05.8 +05 24 08   0.03452 1.0421   156.3    23.0    21.6
    ...
    2013 05 19    15 38 01.2 +11 50 56   0.06441 1.0671   148.4    29.8    23.2
    ...
    2013 05 27    15 46 48.0 +13 54 39   0.1060  1.1008   144.2    32.6    24.4
    ...
    2013 06 11    15 54 40.0 +13 09 28   0.1893  1.1640   138.6    35.2    25.9
    
    A. U. Tomatic                (C) Copyright 2013 MPC           M.P.E.C. 2013-J48
    

    Read MPEC 2013-J47 Read MPEC 2013-J49


    MPEC number:

    Enter an MPEC number in one of the following forms:

    • 1997-B01 (the full form)
    • J97B01 (the packed version of the full form)
    • B01 (the abbreviated form)